Weather observations for the past three days for
Pottstown, Pottstown Limerick Airport
Imperial (Metric)
Date Time (edt) Wind (mph) Vis. (mi.) Weather Sky Cond. Temperature (ºF) Relative Humidity Wind Chill (°F) Heat Index (°F) Pressure Precipitation (in)
Air Dwpt 6 hour altimeter (in) sea level (mb) 1 hr 3 hr 6 hr
Max. Min.
17 23:54 Calm 10.00 Overcast BKN085 OVC100 72 70 94% 29.87 1010.8
17 22:54 Calm 10.00 Overcast FEW080 OVC100 73 70 90% 29.86 1010.6 0.02 0.37
17 21:54 Calm 10.00 Overcast OVC090 73 70 90% 29.89 1011.6 0.01
17 20:54 NW 7 10.00 Light Rain FEW050 SCT065 BKN100 73.9 72 94% 29.88 1011.5 0.34
17 19:54 NW 17 G 26 6.00 Thunderstorm in Vicinity Rain Fog/Mist BKN025 BKN036 OVC070 75.9 72 93 75.9 88% 76 29.87 1010.9 0.03 0.07
17 18:54 Calm 10.00 Partly Cloudy SCT110 82.9 72 70% 88 29.79 1008.4
17 17:54 NW 7 10.00 A Few Clouds FEW110 84 73 70% 90 29.8 1008.8
17 16:54 Vrbl 5 10.00 Fair CLR 82 72 72% 87 29.82 1009.2 0.04
17 15:54 SW 5 10.00 Fair CLR 79 73 82% 82 29.84 1010.1 0.04
17 14:54 SW 5 10.00 Thunderstorm FEW029 FEW120 84.9 72 65% 91 29.85 1010.3
17 13:54 SW 5 10.00 A Few Clouds FEW055 91.9 68 93 75.9 46% 96 29.84 1009.8
17 12:54 Vrbl 5 10.00 A Few Clouds FEW049 91 69.1 49% 96 29.86 1010.4
17 11:54 Vrbl 6 10.00 Fair CLR 90 71.1 54% 96 29.87 1010.8
17 10:54 Vrbl 3 10.00 Fair CLR 87.1 73 63% 95 29.88 1011.3
17 09:54 Vrbl 3 9.00 Fair CLR 82.9 72 70% 88 29.89 1011.7
17 08:54 SW 7 8.00 Fair CLR 78.1 72 82% 80 29.9 1012.1
17 07:54 Calm 7.00 Fair CLR 75.9 72 75.9 73 88% 76 29.88 1011.5
17 06:54 S 3 8.00 Partly Cloudy SCT110 75 72 90% 74 29.88 1011.3
17 05:54 Calm 8.00 A Few Clouds FEW011 FEW120 73.9 71.1 91% 29.87 1010.9
17 04:54 Calm 10.00 A Few Clouds FEW090 73 71.1 94% 29.85 1010.2
17 03:54 Calm 9.00 Fair CLR 73 71.1 94% 29.85 1010.1
17 02:54 Calm 8.00 Fair CLR 73 71.1 94% 29.86 1010.5
17 01:54 Calm 10.00 Fair CLR 73.9 71.1 79 73 91% 29.86 1010.6 0.03
17 00:54 Calm 10.00 Fair CLR 73.9 71.1 91% 29.87 1010.9
16 23:54 Calm 10.00 Fair CLR 73 70 90% 29.88 1011.1
16 22:54 Calm 10.00 A Few Clouds FEW090 73 70 90% 29.86 1010.6 0.03
16 21:54 SW 3 10.00 Fair CLR 73.9 70 88% 29.87 0.0
16 20:54 Calm 10.00 Thunderstorm in Vicinity FEW080 73.9 69.1 85% 29.84 0.0 0.03
16 18:54 Calm 7.00 Fair CLR 81 78.1 91% 89 29.79 0.0 0.13
16 17:54 N 18 G 31 1.75 Thunderstorm Heavy Rain FEW050 BKN065 OVC095 77 72 85% 78 29.83 0.0 0.11
16 16:54 SW 8 G 22 10.00 Fair CLR 96.1 69.1 41% 102 29.76 0.0
16 15:54 S 9 G 25 10.00 A Few Clouds FEW060 97 69.1 40% 103 29.78 0.0
16 14:54 SW 13 G 25 10.00 Fair CLR 97 69.1 40% 103 29.8 0.0
16 13:54 SW 15 G 22 10.00 Fair CLR 97 69.1 40% 103 29.83 0.0
16 12:54 S 8 G 20 10.00 Fair CLR 96.1 69.1 41% 102 29.84 0.0
16 11:54 S 13 G 18 10.00 Fair CLR 93.9 68 43% 98 29.86 0.0
16 10:54 Vrbl 5 10.00 NULL NULL 91.9 70 49% 98 29.86 0.0
Date Time (edt) Wind (mph) Vis. (mi.) Weather Sky Cond. Air Dwpt Max. Min. Relative Humidity Wind Chill (°F) Heat Index (°F) altimeter (in) sea level (mb) 1 hr 3 hr 6 hr
6 hour
Temperature (ºF) Pressure Precipitation (in)